Bidovce vonkajŇ°ia teplota Measurements

Back to Overview

Timestamp Temperature Humidity
1/29/2022 6:45:29 AM -1,4 C 81.0%
1/29/2022 6:38:26 AM -1,3 C 81.0%
1/29/2022 6:31:25 AM -1,3 C 81.0%
1/29/2022 6:24:22 AM -1,2 C 82.0%
1/29/2022 6:17:19 AM -1,1 C 82.0%
1/29/2022 6:10:17 AM -0,9 C 82.0%
1/29/2022 6:03:14 AM -0,7 C 82.0%
1/29/2022 5:56:12 AM -0,5 C 82.0%
1/29/2022 5:49:11 AM -0,4 C 81.0%
1/29/2022 5:42:07 AM -0,5 C 81.0%
1/29/2022 5:35:04 AM -0,6 C 82.0%
1/29/2022 5:28:04 AM -0,5 C 82.0%
1/29/2022 5:21:03 AM -0,5 C 82.0%
1/29/2022 5:14:07 AM -0,4 C 82.0%
1/29/2022 5:07:00 AM -0,4 C 83.0%
1/29/2022 4:59:59 AM -0,4 C 83.0%
1/29/2022 4:52:58 AM -0,3 C 83.0%
1/29/2022 4:45:55 AM -0,4 C 83.0%
1/29/2022 4:38:54 AM -0,4 C 84.0%
1/29/2022 4:31:51 AM -0,5 C 84.0%
1/29/2022 4:24:50 AM -0,5 C 84.0%
1/29/2022 4:17:49 AM -0,4 C 84.0%
1/29/2022 4:10:49 AM -0,4 C 84.0%
1/29/2022 4:03:47 AM -0,5 C 84.0%
1/29/2022 3:56:45 AM -0,4 C 84.0%
1/29/2022 3:49:42 AM -0,4 C 84.0%
1/29/2022 3:42:42 AM -0,5 C 83.0%
1/29/2022 3:35:39 AM -0,6 C 83.0%
1/29/2022 3:28:38 AM -0,6 C 82.0%
1/29/2022 3:21:36 AM -0,5 C 82.0%
1/29/2022 3:14:34 AM -0,5 C 82.0%
1/29/2022 3:07:33 AM -0,4 C 82.0%
1/29/2022 3:00:30 AM -0,4 C 82.0%
1/29/2022 2:53:28 AM -0,4 C 82.0%
1/29/2022 2:46:26 AM -0,4 C 82.0%
1/29/2022 2:39:25 AM -0,3 C 82.0%
1/29/2022 2:32:22 AM -0,4 C 83.0%
1/29/2022 2:25:22 AM -0,5 C 83.0%
1/29/2022 2:18:20 AM -0,3 C 84.0%
1/29/2022 2:11:20 AM -0,3 C 84.0%
1/29/2022 2:04:18 AM -0,2 C 84.0%
1/29/2022 1:57:15 AM -0,1 C 84.0%
1/29/2022 1:50:13 AM 0,0 C 85.0%
1/29/2022 1:43:10 AM 0,0 C 86.0%
1/29/2022 1:36:08 AM -0,1 C 87.0%
1/29/2022 1:29:07 AM -0,1 C 87.0%
1/29/2022 1:22:04 AM 0,0 C 87.0%
1/29/2022 1:15:02 AM 0,0 C 88.0%
1/29/2022 1:08:01 AM 0,1 C 88.0%
1/29/2022 1:00:58 AM 0,1 C 88.0%
1/29/2022 12:53:56 AM 0,2 C 88.0%
1/29/2022 12:46:55 AM 0,4 C 86.0%
1/29/2022 12:39:52 AM 0,7 C 84.0%
1/29/2022 12:32:49 AM 0,8 C 84.0%
1/29/2022 12:25:46 AM 0,7 C 87.0%
1/29/2022 12:18:45 AM 0,5 C 89.0%
1/29/2022 12:11:44 AM 0,6 C 90.0%
1/29/2022 12:04:42 AM 0,6 C 90.0%